Regional Weather Roundup
Issued by NWS

Home | Current Version | Previous Version | Text Only | Print | Product List | Glossary Off
Versions: 1 2 3 4 5 6 7 8 9 10 11 12 13 14 15 16 17 18 19 20 21 22 23 24 25 26 27 28 29 30 31 32 33 34 35 36 37 38 39 40 41 42 43 44 45 46 47 48 49 50

000
ASUS43 KLMK 061102
RWRKY
KENTUCKY REGIONAL WEATHER ROUNDUP
NATIONAL WEATHER SERVICE LOUISVILLE KY
700 AM EDT WED MAY 06 2015

NOTE "FAIR" INDICATES FEW OR NO CLOUDS BELOW 12,000 FEET
WITH NO SIGNIFICANT WEATHER AND/OR OBSTRUCTIONS TO VISIBILITY.

KYZ001>023-026-027-061>063-070>075-061200-
WESTERN AND SOUTH CENTRAL KENTUCKY

CITY           SKY/WX    TMP DP  RH WIND       PRES   REMARKS
PADUCAH        CLEAR     55  53  93 CALM      30.15R
HENDERSON      CLEAR     55  50  82 CALM      30.16R
OWENSBORO      CLEAR     60  56  87 CALM      30.18R
HOPKINSVILLE   CLEAR     59  55  88 E2        30.17S
BOWLING GREEN  MOCLDY    60  57  89 CALM      30.19R FOG
GLASGOW        NOT AVBL
$$

KYZ024-025-028>034-038-045-046-053-061200-
NORTH CENTRAL KENTUCKY

CITY           SKY/WX    TMP DP  RH WIND       PRES   REMARKS
LOUISVILLE/SDF PTCLDY    61  56  83 SE5       30.19S
LOUISVILLE/LOU CLEAR     58  54  86 CALM      30.20R
FORT KNOX      NOT AVBL
$$

KYZ035>037-039>044-047>052-055>060-089>105-061200-
NORTHEAST KENTUCKY

CITY           SKY/WX    TMP DP  RH WIND       PRES   REMARKS
LEXINGTON      CLEAR     61  54  77 CALM      30.21R
COVINGTON      PTCLDY    57  53  86 CALM      30.20S
FRANKFORT      PTCLDY    54  51  90 CALM      30.19S FOG
$$

KYZ054-064>069-076>088-106>120-061200-
SOUTHEAST KENTUCKY

CITY           SKY/WX    TMP DP  RH WIND       PRES   REMARKS
JACKSON        PTCLDY    59  53  80 S5        30.23S
LONDON         MOCLDY    56  51  84 CALM      30.23R HAZE
SOMERSET       NOT AVBL
MIDDLESBORO    NOT AVBL
MONTICELLO     SUNNY     55  55 100 CALM      30.24S
$$




USA.gov is the U.S. government's official web portal to all federal, state and local government web resources and services.